星链-31775 (STARLINK-31775 )

导读

STARLINK-31775是美国SpaceX星链星座的卫星,于2024年6月8日发射入轨,属于星链网络扩容的组网卫星。星链旨在构建全球卫星互联网,该卫星加入后进一步提升星座覆盖密度与网络容量,能为全球偏远、无基础设施覆盖的地区提供高速互联网接入服务,也可为军用通信等领域提供支撑。

基本信息
目录编号:
60052
目录名称:
STARLINK-31775
国际标识:
2024-112Q
轨道中心:
EARTH
卫星名称:
星链-31775
卫星全名:
星链-31775 (STARLINK-31775 )
卫星状态:
在轨 (已飞行740 天)
发射日期:
2024-06-08 UTC
国别 :
美国 (US)
星等 :
--
轨道信息
数据来源 国际轨道数据 AOE轨道数据
星历时间 2026-06-18T02:06:39+0800
8小时前
查看轨道信息
2026-06-17T02:00:00+0800
1天前
查看轨道信息
半长轴 6853.382km 6853.357km
偏心率 0.0001125 0.0001305
轨道倾角 53.162° 53.159°
近地点辐角 110.144° 101.645°
升交点赤经 333.446° 338.111°
平近点角 249.968° 121.270°
近地点 474.473km 474.325km
远地点 476.017km 476.115km
周期 94.106分钟 94.105分钟
每日圈数 15.301902 15.301984
详细信息
固有亮度:
5
最大亮度:
1.5
卫星平台:
Starlink v2.0 mini
覆盖范围:
全球
运营商:
太空探索技术公司
运营商所在国:
美国
制造商(研发单位):
太空探索技术公司
制造商所在国:
美国
使用方式:
暂无
卫星简介
星链(Starlink)计划是由太空探索技术公司(SpaceX)提出的一个巨型低轨卫星互联网星座项目,计划在2019年至2024年间在太空搭建由约1.2万颗卫星组成的“星链”网络,其中1584颗将部署在地球上空550千米处的近地轨道,并从2020年开始工作。该卫星仍在工作。
2D轨道图
3D轨道图
轨道高度分析图
轨道倾角分析图
轨道综合分析图
查看轨道综合分析图